Location: Arbon
(43.0005°N, 0.7472°E)
Time: 00:30:50
(UTC+00:00)

Meteor 2-5 Rocket - Pass Details

Date: 07 August 2020
Orbit: 832 x 912 km, 81.2° (Epoch: 19 September)

Event Time Altitude Azimuth Distance (km) Brightness Sun altitude
Rises 02:01:49 0° 350° (N) 3,449 7.6 -24.7°
Reaches altitude 10° 02:04:17 10° 350° (N) 2,496 6.8 -24.5°
Maximum altitude 02:09:57 87° 81° (E) 851 3.6 -23.9°
Enters shadow 02:11:38 47° 168° (SSE) 1,101 4.0 -23.7°
